Home   Weather   Hommersåk   Past weeks

Flag for Norway Past Weather in Hommersåk, Norway — Yesterday and Last 2 Weeks

Now
45 °F

Passing clouds.


Feels Like: 41 °F
Forecast: 37 / 41 °F
Wind: 7 mph from West

Location: Stavanger / Sola

Current Time: Jan 20, 2017 at 4:55:52 am

Latest Report: Jan 20, 2017 at 3:20 am


Visibility: N/A

Pressure: 30.45 "Hg

Humidity: 93%

Dew Point: 43 °F

Location of HommersåkLocation

Past Weather in Hommersåk — Graph

°F

Hommersåk Temperature Yesterday

Maximum temperature yesterday: 45 °F (at 12:20 am)
Minimum temperature yesterday: 45 °F (at 12:20 am)
Average temperature yesterday: 45 °F

High & Low Weather Summary for the Past Weeks

 TemperatureHumidityPressure
High45 °F (Jan 6, 10:20 pm)100% (Jan 6, 4:20 pm)30.63 "Hg (Jan 6, 4:20 pm)
Low16 °F (Jan 16, 4:50 am)46% (Jan 5, 7:20 pm)28.53 "Hg (Jan 11, 9:20 am)
Average36 °F84%29.93 "Hg
* Reported Jan 5 3:50 am — Jan 20 3:20 am, Hommersåk, Weather by CustomWeather, © 2017

Note: Actual official high and low records may vary slightly from our data, if they occured in-between our weather recording intervals... More about our weather records

Advertising

Hommersåk Weather History for the Previous 24 Hours

Scroll right to see more
 ConditionsComfort  
Time TempWeatherWind HumidityBarometerVisibility
3:20 am
Fri, Jan 20
45 °FPassing clouds.7 mph93%30.45 "HgN/A
2:20 am45 °FOvercast.7 mph93%30.48 "HgN/A
1:50 am45 °FPartly cloudy.8 mph93%30.48 "HgN/A
1:20 am45 °FPartly cloudy.7 mph93%30.48 "HgN/A
12:50 am45 °FPassing clouds.8 mph93%30.48 "HgN/A
12:20 am45 °FPassing clouds.8 mph93%30.48 "HgN/A
11:50 pm
Thu, Jan 19
45 °FPassing clouds.7 mph93%30.48 "HgN/A
11:20 pm45 °FPartly cloudy.7 mph93%30.48 "HgN/A
10:50 pm45 °FPassing clouds.12 mph93%30.48 "HgN/A
10:20 pm45 °FPassing clouds.8 mph93%30.48 "HgN/A
9:50 pm45 °FPartly cloudy.9 mph93%30.48 "HgN/A
9:20 pm45 °FPartly cloudy.7 mph93%30.48 "HgN/A
8:50 pm45 °FPartly cloudy.8 mph93%30.48 "HgN/A
8:20 pm45 °FPassing clouds.8 mph93%30.48 "HgN/A
7:50 pm45 °FPassing clouds.8 mph93%30.45 "HgN/A
7:20 pm45 °FPassing clouds.9 mph93%30.45 "HgN/A
6:50 pm45 °FPassing clouds.9 mph93%30.45 "HgN/A
6:20 pm45 °FPartly cloudy.10 mph93%30.45 "HgN/A
5:50 pm45 °FPartly cloudy.9 mph93%30.45 "HgN/A
5:20 pm45 °FDrizzle. Fog.8 mph93%30.45 "Hg3 mi
4:50 pm45 °FFog.9 mph93%30.45 "Hg2 mi
4:20 pm45 °FDrizzle. Broken clouds.7 mph93%30.45 "Hg4 mi
3:50 pm45 °FDrizzle. Fog.5 mph93%30.45 "Hg2 mi
3:20 pm45 °FDrizzle. Fog.5 mph93%30.45 "Hg3 mi
2:50 pm45 °FDrizzle. Broken clouds.8 mph93%30.45 "Hg4 mi
2:20 pm45 °FPartly sunny.5 mph93%30.45 "HgN/A
1:50 pm45 °FPartly sunny.8 mph93%30.45 "HgN/A
1:20 pm45 °FSleet. Partly sunny.13 mph93%30.45 "HgN/A
12:50 pm45 °FPartly sunny.9 mph93%30.45 "HgN/A
12:20 pm45 °FBroken clouds.7 mph93%30.45 "HgN/A
11:50 am45 °FPartly sunny.6 mph93%30.45 "Hg6 mi
11:20 am45 °FBroken clouds.6 mph93%30.45 "HgN/A
10:50 am45 °FDrizzle. Broken clouds.7 mph93%30.45 "HgN/A
10:20 am45 °FDrizzle. Fog.8 mph93%30.45 "Hg1 mi
9:50 am45 °FDrizzle. Fog.8 mph93%30.45 "Hg2 mi
9:20 am45 °FBroken clouds.9 mph93%30.45 "HgN/A
8:50 am45 °FLow clouds.9 mph93%30.42 "Hg3 mi
8:20 am45 °FFog.7 mph93%30.42 "Hg2 mi
7:50 am45 °FPartly cloudy.8 mph100%30.42 "Hg5 mi
7:20 am45 °FPassing clouds.8 mph100%30.42 "Hg5 mi
6:50 am45 °FDrizzle. Fog.9 mph100%30.42 "Hg2 mi
6:20 am45 °FDrizzle. Fog.10 mph93%30.45 "Hg2 mi
5:50 am45 °FDrizzle. Fog.9 mph93%30.45 "Hg2 mi
4:50 am45 °FPartly cloudy.9 mph93%30.45 "HgN/A
Weather by CustomWeather, © 2017

See weather overviewHow to use our weather pages